Flag for Spain Weather past 2 weeks in A Coruña, Spain

Now
69 °F

Partly sunny.


Feels Like: 69 °F
Forecast: 60 / 71 °F
Wind: 5 mph from Northwest

Location: La Coruna

Current Time: Jul 1, 2015 at 3:14:23 PM

Latest Report: Jul 1, 2015 at 2:00 PM


Visibility: 13 mi

Pressure: 29.96 "Hg

Humidity: 71%

Dew point: 60 °F

Location of A CoruñaLocation

Historic Weather in A Coruña — Graph

°F

A Coruña temperature yesterday

Maximum temperature yesterday: 72 °F (at 2:00 PM)
Minimum temperature yesterday: 62 °F (at 8:00 AM)
Average temperature yesterday: 68 °F

Past Weeks' High & Low Weather Summary

 TemperatureHumidityPressure
High80 °F (Jun 29, 8:00 PM)99% (Jun 23, 8:00 AM)30.36 "Hg (Jun 23, 8:00 AM)
Low58 °F (Jun 17, 5:00 AM)55% (Jun 21, 2:00 PM)29.91 "Hg (Jul 1, 10:00 AM)
Average65 °F80%30.12 "Hg
* Reported Jun 16 2:00 PM — Jul 1 1:00 PM, A Coruña, Weather by CustomWeather, © 2015

Note: Actual official high and low records may vary slightly from our data, if they occured in-between our weather recording intervals... More about our weather records

Advertising

A Coruña weather history for previous 24 hours

 ConditionsComfort  
Time TempWeatherWind HumidityBarometerVisibility
1:00 PM
Wed, Jul 1
76 °FMild.7 mph58%29.95 "Hg12 mi
12:00 PM73 °FMild.6 mph63%29.95 "Hg12 mi
11:00 AM72 °FPartly sunny.8 mph63%29.95 "Hg12 mi
10:00 AM69 °FMild.7 mph73%29.91 "Hg12 mi
9:00 AM66 °FMild.7 mph78%29.93 "Hg12 mi
8:00 AM65 °FOvercast.7 mph81%29.92 "Hg12 mi
7:00 AM65 °FMild.5 mph83%29.92 "Hg7 mi
6:00 AM65 °FMild.7 mph80%29.92 "Hg7 mi
4:00 AM65 °FMild.7 mph84%29.93 "Hg2 mi
3:00 AM65 °FMild.5 mph81%29.94 "Hg12 mi
2:00 AM65 °FFog.2 mph83%29.95 "Hg3 mi
1:00 AM64 °FMild.3 mph87%29.96 "Hg12 mi
12:00 AM64 °FMild.3 mph89%29.97 "Hg6 mi
10:00 PM
Tue, Jun 30
65 °FMild.8 mph86%29.97 "Hg12 mi
9:00 PM67 °FMild.3 mph82%29.96 "Hg12 mi
8:00 PM67 °FMild.7 mph80%29.93 "Hg12 mi
6:00 PM68 °FMild.9 mph80%29.95 "Hg12 mi
4:00 PM70 °FMild.12 mph75%29.97 "Hg12 mi
3:00 PM71 °FMild.10 mph72%29.98 "Hg12 mi
Weather by CustomWeather, © 2015

See weather overviewHow to use our weather pages